TOTTORI_AIRPORT current weather conditions

sailwx.info

Wind from 360 at 18 knots

Air temperature 2.0° C
Visibility: greater than 1.6 NM
Dewpoint -1.0° C
Present weather: Light snow showers.

Last reported at 2017-Jan-23 04:00 UTC.
Time now 2017-Jan-23 06:30 UTC

Location: N 35°32' E 134°10'.
View on Google Maps.

See reports from other nearby stations

  
Tides and Currents Weather Stations Pressure Air Temp Water Temp Dewpoint Dewpoint Depression Visibility Wind Speed Wind Dir Waves Ship Positions
date/time (UTC)wind fromknots sea level pressurealtimeterstation pressurevisibilityair tempwater tempwave heightnotes
2017-Jan-23 05:43 350 21 2.7 2.0 Light snow showers.
2017-Jan-23 05:15 340 20 gusting 31 1.6 2.0 Light snow showers.
2017-Jan-23 05:00 350 19 2.7 2.0 Light snow showers.
2017-Jan-23 04:00 360 18 1.6 2.0 Light snow showers.
2017-Jan-23 03:32 340 22 2.7 2.0 Light snow showers.
2017-Jan-23 03:21 350 21 1.6 2.0 Light snow showers.
2017-Jan-23 03:06 350 18 1.1 1.0 Light snow showers.
2017-Jan-23 03:00 350 24 0.5 1.0 Light snow showers.
2017-Jan-23 02:15 320 15 1.6 1.0 Light snow showers.
2017-Jan-23 02:07 320 13 gusting 24 0.5 1.0 Light thunderstorm with rain.
2017-Jan-23 02:04 320 8 gusting 20 0.4-0.0 Light thunderstorm with rain.
2017-Jan-23 02:02 320 7 0.2-0.0 Light thunderstorm with rain.
2017-Jan-23 02:00 290 7 0.2-0.0 Light thunderstorm with rain.
2017-Jan-23 01:44 250 11 gusting 27 0.5-0.0 Light snow showers.
2017-Jan-23 01:25 340 9 1.6 1.0 Light snow showers.
2017-Jan-23 01:24 340 8 0.8 1.0 Light snow showers.
2017-Jan-23 01:12 350 17 0.3 1.0 Snow showers.
2017-Jan-23 01:00 350 6 0.5 1.0 Light snow showers.
2017-Jan-23 00:33 340 20 0.3 1.0 Light snow showers.
2017-Jan-23 00:31 340 19 0.4 1.0 Light snow showers.
2017-Jan-23 00:27 340 18 0.8 1.0 Light snow showers.
2017-Jan-23 00:24 350 17 0.8 1.0 Light snow showers.
2017-Jan-23 00:00 040 9 1.1-0.0 Light snow showers.
2017-Jan-22 23:42 220 5 0.2-0.0 Snow showers.
2017-Jan-22 23:33 230 6 0.2-0.0 Snow showers.
2017-Jan-22 23:23 230 6 0.2-1.0 Snow showers.
2017-Jan-22 23:20 240 7 0.2-1.0 Snow showers.
2017-Jan-22 23:18 240 7 0.2-1.0 Snow showers.
2017-Jan-22 23:16 240 7 0.3-1.0 Snow showers.
2017-Jan-22 23:12 230 7 0.5-1.0 Light snow showers.
2017-Jan-22 23:08 220 7 0.5-1.0 Light snow showers.
2017-Jan-22 23:05 220 7 0.5-1.0 Light snow showers.
2017-Jan-22 23:00 220 7 0.2-1.0 Snow showers.
2017-Jan-22 22:42 230 6 0.2-1.0 Snow showers.
2017-Jan-22 22:20 250 6 0.2-0.0 Light thunderstorm with rain.
2017-Jan-22 22:16 270 6 0.2-0.0 Light thunderstorm with rain.
2017-Jan-22 22:14 270 6 0.2-0.0 Light thunderstorm with rain.
2017-Jan-22 22:09 270 8 0.2-0.0 Snow showers.
2017-Jan-22 22:07 270 12 gusting 21 0.2-0.0 Snow showers.
2017-Jan-22 22:03 280 14 0.2-0.0 Snow showers.
2017-Jan-22 22:00 280 17 0.4-0.0 Snow showers.
2017-Jan-22 21:43 350 24 gusting 35 0.2 1.0 Snow showers.
2017-Jan-22 21:40 360 25 gusting 35 0.2-0.0 Snow showers. Small hail/snow pellets.
2017-Jan-22 21:30 230 13 0.4-0.0 Snow showers.
2017-Jan-22 21:10 270 25 0.5-0.0 Light snow showers.
2017-Jan-22 12:00 260 25 4.3 1.0
2017-Jan-22 11:42 230 13 2.7-0.0 Light snow showers.
2017-Jan-22 11:18 230 12 1.6 1.0 Light snow showers.
2017-Jan-22 11:00 240 13 2.7-0.0 Light snow showers.
2017-Jan-22 10:36 230 13 1.6-0.0 Light snow showers.
2017-Jan-22 10:00 230 11 2.7-0.0 Light snow showers.
2017-Jan-22 09:42 230 13 1.9-0.0 Light snow showers.
2017-Jan-22 09:26 230 15 1.1-0.0 Light snow showers.
2017-Jan-22 09:24 230 17 gusting 27 1.9-0.0 Light snow showers.
2017-Jan-22 09:22 230 17 gusting 27 1.3-0.0 Light snow showers.
2017-Jan-22 09:03 240 14 0.8-0.0 Light snow showers.
2017-Jan-22 09:00 240 15 0.5-0.0 Light snow showers.
2017-Jan-22 08:35 250 17 gusting 29 0.8 1.0 Light snow showers. Small hail/snow pellets.
2017-Jan-22 08:00 240 18 gusting 27 1.6 2.0 Light snow showers.
2017-Jan-22 07:09 240 15 gusting 27 1.6 2.0 Light snow showers.
2017-Jan-22 07:00 230 13 5.4 2.0 Light snow showers.
2017-Jan-22 06:22 230 13 2.7 2.0 Light snow showers.
2017-Jan-22 06:04 240 17 gusting 27 1.6 3.0 Light snow showers.
2017-Jan-22 06:00 240 15 gusting 27 3.2 3.0 Light snow showers.
2017-Jan-22 05:00 250 19 5.4 4.0
2017-Jan-22 04:00 250 19 5.4 4.0 Light rain showers.
2017-Jan-22 03:00 240 17 gusting 27 5.4 5.0
2017-Jan-22 02:00 240 13 5.4 4.0 Light rain showers.
2017-Jan-22 01:00 200 5 5.4 4.0 Light rain showers.
2017-Jan-22 00:00 200 6 5.4 3.0 Light rain showers.
2017-Jan-21 23:00 160 5 5.4 3.0
2017-Jan-21 22:00 180 7 5.4 2.0
2017-Jan-21 21:30 210 7 5.4 3.0 Light rain showers.
2017-Jan-21 21:10 200 8 5.4 3.0 Light rain showers.
2017-Jan-21 12:00 140 8 5.4 3.0
2017-Jan-21 11:00 160 6 5.4 3.0
2017-Jan-21 10:00 150 6 5.4 3.0
2017-Jan-21 09:00 140 6 5.4 3.0
2017-Jan-21 08:00 190 5 5.4 5.0
2017-Jan-21 07:00 280 4 5.4 5.0
2017-Jan-21 06:00 350 6 5.4 6.0 Showers in the vicinity.